{"data":{"norad_id":59236,"epoch":"2026-05-25T04:00:03.998880Z","epoch_age_seconds":67451,"freshness":"FRESH","line1":"1 59236U 24049F   26145.16671295  .00036890  00000+0  11412-2 0  9995","line2":"2 59236  43.0005 359.1927 0002013 274.4384 137.1885 15.32854418  5912","mean_motion":15.32854418,"eccentricity":0.0002013,"inclination_deg":43.0005,"raan_deg":359.1927,"arg_perigee_deg":274.4384,"mean_anomaly_deg":137.1885,"bstar":0.0011412,"rev_number":591,"period_min":93.942385075215,"perigee_km":465.92290849597,"apogee_km":468.67888179255,"semimajor_km":6845.4378951443,"source":"CELESTRAK","updated_at":"2026-05-25T13:38:18.869972Z"}}